{"data":{"norad_id":65057,"intl_designator":"2025-165B","name":"STARLINK-34745","alt_names":[],"object_type":"PAYLOAD","status":"ACTIVE","operator":null,"country":"US","launch_date":"2025-07-31","launch_site_code":"AFWTR","launch_vehicle":null,"mission":null,"orbit_class":"UNKNOWN","rcs_meters":null,"size_class":null,"mass_kg":null,"dimensions":null,"purposes":["comms"],"wikipedia_slug":null,"has_3d_model":false,"image_url":null,"decayed_at":null,"tle_current":{"epoch":"2026-05-25T03:48:30.910176Z","epoch_age_seconds":51520,"freshness":"FRESH","line1":"1 65057U 25165B   26145.15869109 -.00017377  00000+0 -12041-2 0  9995","line2":"2 65057  97.4543 222.1881 0002685 189.6011 170.5165 15.05618749 46290","mean_motion":15.05618749,"eccentricity":0.0002685,"inclination_deg":97.4543,"raan_deg":222.1881,"arg_perigee_deg":189.6011,"mean_anomaly_deg":170.5165,"bstar":-0.0012041,"rev_number":4629,"period_min":95.641742038376,"perigee_km":547.74691577337,"apogee_km":551.46711430944,"semimajor_km":6927.7440150414,"source":"CELESTRAK","updated_at":"2026-05-25T13:38:20.675621Z"}}}